Location: Vancouver
(49.2500°N, 123.1330°W)
Time: 13:11:43
(UTC-08:00)

ISS - Visible Passes

Search period start: 11 February 2016 00:00
Search period end: 21 February 2016 00:00
Orbit: 399 x 407 km, 51.6° (Epoch: 11 February)

Date Brightness Start Highest point End Pass type
(mag) Time Alt. Az. Time Alt. Az. Time Alt. Az.
11 Feb -3.0 17:53:08 10° W 17:56:20 58° N 17:59:33 10° ENE visible
11 Feb -2.8 19:29:47 10° WNW 19:32:31 55° NW 19:32:31 55° NW visible
12 Feb -3.1 18:37:01 10° WNW 18:40:14 56° N 18:41:59 23° ENE visible
12 Feb -0.6 20:13:31 10° WNW 20:14:37 19° WNW 20:14:37 19° WNW visible
13 Feb -3.5 19:20:44 10° WNW 19:24:00 87° SSW 19:24:05 84° SE visible
14 Feb -3.3 18:27:55 10° WNW 18:31:10 71° NNE 18:33:35 17° E visible
14 Feb -1.0 20:04:31 10° W 20:06:13 24° WSW 20:06:13 24° WSW visible
15 Feb -2.8 19:11:33 10° WNW 19:14:44 52° SSW 19:15:44 35° SSE visible
16 Feb -3.3 18:18:39 10° WNW 18:21:54 79° SSW 18:25:09 10° ESE visible
16 Feb -0.9 19:55:39 10° W 19:57:57 18° SW 19:57:59 18° SW visible
17 Feb -1.6 19:02:22 10° W 19:05:13 29° SW 19:07:40 13° SSE visible
18 Feb -2.3 18:09:16 10° WNW 18:12:24 46° SSW 18:15:32 10° SE visible
19 Feb -0.5 18:53:24 10° W 18:55:28 16° SW 18:57:31 10° S visible
